Regional Weather Roundup
Issued by NWS Wakefield, VA

Home | Current Version | Previous Version | Graphics & Text | Print | Product List | Glossary On
Versions: 1 2 3 4 5 6 7 8 9 10 11 12 13 14 15 16 17 18 19 20 21 22 23 24 25 26 27 28 29 30 31 32 33 34 35 36 37 38 39 40 41 42 43 44 45 46 47 48 49 50
000
ASUS41 KAKQ 011810
RWRAKQ

REGIONAL WEATHER ROUNDUP
NATIONAL WEATHER SERVICE WAKEFIELD VA
200 PM EDT MON SEP 01 2014

Note: "fair" indicates few or no clouds below 12,000 feet with no
significant weather and/or obstructions to visibility. * = Denotes
station may not report precipitation (e.g., rain,snow,etc.),
thunder or fog.

VAZ042-051-052>054-056-011900-
NORTHERN VIRGINIA

CITY           SKY/WX    TMP DP  RH WIND       PRES   REMARKS
WASH NATIONAL  PTSUNNY   87  73  62 S9        29.98F
DULLES         PTSUNNY   86  71  60 CALM      29.99F
FORT BELVOIR   MOSUNNY   89  74  60 S8        29.98F HX  98
QUANTICO       MOSUNNY   86  76  71 S7        29.99F HX  96
FREDERICKSBRG* SUNNY     91  72  53 SW7       29.99S HX  98
STAFFORD*      PTSUNNY   88  73  61 W5        30.03F HX  95
WARRENTON      CLOUDY    91  76  61 W6        29.99F HX 103
CULPEPER*      MOSUNNY  N/A N/A N/A W8        30.00S
MANASSAS*      NOT AVBL
LEESBURG*      PTSUNNY   88  73  62 W7        30.00S HX  96
WINCHESTER     CLOUDY    81  75  83 CALM      30.02R
$$

VAZ048-049-060>072-079>083-011900-
CENTRAL AND SOUTH CENTRAL VIRGINIA...AND NORTH CENTRAL NORTH CAROLINA

CITY           SKY/WX    TMP DP  RH WIND       PRES   REMARKS
RICHMOND       PTSUNNY   94  65  38 W13       30.00F HX  96
CHESTERFIELD*  PTCLDY    91  66  43 SW8       30.03F
PETERSBURG*    MOSUNNY   91  66  44 SW9       30.03S
HANOVER        MOSUNNY   93  69  45 W13       30.02F HX  98
TAPPAHANNOCK*  MOSUNNY   93  62  36 SW7       30.00F
CHARLOTTSVILLE MOSUNNY   89  70  53 VRB6      30.01F
ORANGE*        MOSUNNY   90  70  51 SW6       30.02F HX  95
LOUISA*        MOSUNNY   90  70  51 W7        30.01S HX  95
FARMVILLE*     PTSUNNY   90  68  48 SW10G16   30.01F
SOUTH HILL*    PTSUNNY   93  70  46 SW8G17    30.10F HX  99
ROANOKE RAPIDS MOCLDY    91  72  52 W8G16     30.05S HX  98
RALEIGH        PTSUNNY   92  72  51 VRB5      30.08F HX  99
$$

VAZ088>098-011900-
SOUTHEAST VIRGINIA

CITY           SKY/WX    TMP DP  RH WIND       PRES   REMARKS
NORFOLK        PTSUNNY   92  71  50 SW13      30.02F HX  98
VIRGINIA BEACH PTSUNNY   90  72  55 SW10      30.02F HX  97
NORFOLK NAVAL  PTSUNNY   93  74  53 SW12      30.03F HX 103
WEST POINT*    PTSUNNY   92  70  48 SW6       30.02F HX  97
NEWPORT NEWS   PTSUNNY   94  75  54 SW12      30.01F HX 105
LANGLEY AFB    DRIZZLE   90  76  61 SW9       30.01F HX 101
FORT EUSTIS    PTSUNNY   92  72  52 SW8G16    30.00F HX  99
WILLIAMSBURG*  PTSUNNY   97  75  49 S8        30.01F HX 109
FRANKLIN*      MOSUNNY   90  73  58 SW8       30.03F HX  98
WAKEFIELD      MOSUNNY   92  73  53 SW8       30.02F HX 100
$$

VAZ020-022-025-037-045-011900-
WESTERN AND SOUTHWEST VIRGINIA

CITY           SKY/WX    TMP DP  RH WIND       PRES   REMARKS
STAUNTON*      CLOUDY    86  65  49 SW6       30.07S
HOT SPRINGS VA CLOUDY    74  62  66 NW14G21   30.24S
LYNCHBURG      MOSUNNY   86  69  56 W8        30.08F
DANVILLE       MOSUNNY   90  68  48 W9        30.07F
MARTINSVILLE   MOSUNNY   91  68  46 W7        30.12S
ROANOKE        PTSUNNY   87  66  49 W10       30.10F
BLACKSBURG     SUNNY     84  68  58 W5        30.17F
DUBLIN*        PTSUNNY   85  64  49 W13       30.17F
MARION*        PTSUNNY  N/A N/A N/A SW9       30.22F
HILLSVILLE*    CLOUDY    78  64  60 W13G20    30.21S
RICHLANDS*     RAIN      74  67  78 W7        30.21R
WISE*          PTSUNNY   81  63  54 SW15      30.21S
ABINGDON*      PTSUNNY   83  68  60 W8        30.18F
$$

MDZ021>025-VAZ099-100-011900-
SOUTHERN MARYLAND AND THE DELMARVA PENINSULA

CITY           SKY/WX    TMP DP  RH WIND       PRES   REMARKS
PATUXENT RIVER SUNNY     91  70  49 W10       29.98F HX  96
BAY BRIDGE APT   N/A     84  72  65 SE9       29.98F
LEONARDTOWN    SUNNY     88  70  55 SW12      30.00F
DOVER          MOSUNNY   89  73  59 SW6       29.97F HX  96
GEORGETOWN     PTSUNNY   90  73  57 S10       29.99F HX  98
EASTON         MOSUNNY   90  75  62 SW12      30.02F HX 100
CAMBRIDGE      SUNNY     88  73  62 SW6       29.99F HX  96
SALISBURY      MOSUNNY   91  72  53 W12G20    29.99F HX  98
OCEAN CITY     MOSUNNY   85  75  72 S12G17    30.00F
WALLOPS ISLAND MOSUNNY   88  78  72 SW15      30.01F HX 101
ACCOMACK*      NOT AVBL
$$

NCZ012>017-030>032-011900-
EASTERN NORTH CAROLINA

CITY           SKY/WX    TMP DP  RH WIND       PRES   REMARKS
ELIZABETH CITY MOSUNNY   90  76  63 SW10      30.04F HX 101
AHOSKIE*       PTSUNNY   88  75  65 CALM      30.05F HX  97
EDENTON*       MOSUNNY   90  75  61 SW6       30.05F HX  99
CURRITUCK*     PTSUNNY   91  72  53 SW6       30.05F HX  98
KILL DEVIL HLS MOSUNNY   91  70  51 S5        30.05F HX  96
MANTEO         MOSUNNY   86  76  71 S13       30.06F HX  96
CAPE HATTERAS  MOSUNNY   85  77  77 SW12      30.09F HX  95
GOLDSBORO      MOSUNNY   92  78  64 VRB5      30.05F HX 107
WASHINGTON     SUNNY     90  73  57 W7        30.06F HX  98
GREENVILLE     MOSUNNY   91  75  59 W8        30.07F HX 102
NEW BERN       SUNNY     93  73  52 W3        30.08F HX 102
WILMINGTON     MOSUNNY   89  77  67 VRB7      30.08F HX 101
$$

VAZ048-011900-
ELSEWHERE

CITY           SKY/WX    TMP DP  RH WIND       PRES   REMARKS
HARRISBURG PA  PTSUNNY   83  70  64 CALM      29.98F
BALTIMORE      PTSUNNY   88  71  57 W5        29.97F
ANNAPOLIS      PTSUNNY   84  75  74 SE9       29.98S
ANDREWS AFB    MOSUNNY   89  73  60 VRB5      29.99F HX  96
WILMINGTON DE  PTSUNNY   85  73  67 S6        29.98F
PHILADELPHIA   MOSUNNY   87  70  56 SW10      29.98F
WILDWOOD NJ*   SUNNY     88  70  55 W7        30.00F
ATLANTIC CITY  MOSUNNY   86  70  58 SW7       29.98F
HENDERSON NC   MOSUNNY   88  63  43 NW5       30.07F
GREENSBORO     PTSUNNY   91  64  40 W10G21    30.09F
ROCKY MOUNT    MOSUNNY   91  70  49 W7        30.07S HX  96
FAYETTEVILLE   MOSUNNY   93  68  43 CALM      30.06F HX  97
CHARLOTTE      PTSUNNY   90  69  50 W6        30.11F
$$

VAZ100-011900-
MARINE

STATION/POSITION TIME  TEMP    WIND        PRES    WAVE   SWELL
                       AIR SEA DIR/SP/G            HT/PER HT/PER
                 (UTC) (F)     (DEG/KT/KT) (MB)    (FT/S) (FT/S)
44066 TX TWR #4  1800   75 74  230/  8/ 10 1015.8F   4/ 6   3/ 6
CAPE MAY NJ      1800   84 81  220/  5/  7 1015.3S
LEWES DE         1800   86 77  240/  4/  7 1015.2S
15NM E FENWICK I 1800   77 75              1015.9F   3/10
OCEAN-CITY-INLET 1800   80 77  200/  7/ 11 1015.7R
WACHAPREAGUE VA  1800   85 82  210/  9/ 12 1016.4R
THOMAS POINT MD  1800   80 80  170/ 10/ 12 1016.2F
GOOSES REEF MD   1800   80     170/ 10/ 12 1016.0F
COVE POINT MD    1800   79     160/ 11/ 12 1015.4S
SOLOMONS ISLAND  1800      79                N/A
BISHOPS HEAD MD  1800   83 83  200/  8/  9 1015.6S
PINEY POINT MD   1800           10/  2/  3   N/A
POTOMAC MD       1800   82     140/  8/  8 1015.1F
CAMBRIDGE MD     1800   86 79  220/  7/ 10 1015.3S
LEWISETTA VA     1800   88 80  250/ 10/ 12 1015.1F
RAPPAHANNOCK LGT 1800          170/ 12/ 13 1016.8F
STINGRAY PT      1800   84     160/ 10/ 12   N/A
YORK RVR RNG VA  1800   85     220/ 11/ 12 1015.8S
YORKTOWN VA      1800   88 80  220/  7/ 13 1015.8S
JAMESTOWN VA     1800   89     250/  6/ 12   N/A
DOMINION TERM VA 1800   85     220/ 11/ 12 1016.8S
KIPTOPEKE VA     1800      83  180/  2/  2   N/A
CHES BAY BRIDGE  1800   86 78  220/ 10/ 12 1016.1S
CAPE HENRY VA    1800   89     220/  8/ 14 1015.5S
CHESAPEAKE LGHT  1700   81     190/ 14/ 15 1017.7F
WILLOUBY STN VA  1800   84     250/  9/  9 1015.5S
S CRANEY ISL VA  1800          210/  7/ 11 1016.4F
CAPE HENRY BUOY  1700      80                N/A     3/ 8
1ST LANDING BUOY 1800   85     210/  6/  6 1016.3S
CAPE CHARLES BUO 1800      80                N/A     2/ 8   2/ 8
OFFSHORE WE BUOY 1800      79                N/A     3/10   2/10
64NM E OF VA BCH 1800   79 78  190/ 10/ 12 1017.5F   3/ 8   2/ 8
DUCK PIER NC     1800   85 75  200/  8/ 10 1017.2S
44056 DUCK FRF   1800                        N/A     2/ 9   2/12
OREGON INLET NC  1800   83 82  180/ 14/ 16 1018.3S
HATTERAS NC      1800   85 83  210/  8/ 12 1019.4S
DIAMOND SHLS NC  1800   82     200/ 12/ 14 1018.9F   3/10   2/10
CAPE LOOKOUT NC  1700   83     190/  8/ 11 1019.2F
$$


USA.gov is the U.S. government's official web portal to all federal, state and local government web resources and services.